Location: Unspecified
(0.0000°N, 0.0000°E)
Time: 23:52:28
(UTC+00:00)

A-11 Canister half - Pass Details

Date: 13 February 2023
Orbit: 1526 x 1682 km, 47.3° (Epoch: 29 March)

Event Time Altitude Azimuth Distance (km) Brightness Sun altitude
Rises 11:44:59 0° 322° (NW) 4,745 11.4 74.8°
Reaches altitude 10° 11:48:01 10° 323° (NW) 3,782 11.0 75.2°
Maximum altitude 11:57:42 84° 51° (NE) 1,635 11.1 76.0°
Drops below altitude 10° 12:07:44 10° 138° (SE) 3,911 11.4 76.6°
Sets 12:10:55 0° 139° (SE) 4,913 11.8 76.6°
